• en Suisse
  • Liste des pays
  • À 7 jours
  • Température de l'eau
  • Carte satellitaire
  • Carte météo
  • Widgets météo
  • user-avatar
    Se connecter

    Météo par heure à Albany

    Ce jour, 22 Octobre, Lundi

    Heure Température Précipitation Vent Pression Humidité
    00:00 +11°C° 0 mm 8 m/s 756 mmHg 72%
    01:00 +11°C° 0 mm 8 m/s 756 mmHg 72%
    02:00 +11°C° 0 mm 8 m/s 756 mmHg 72%
    03:00 +11°C° 0 mm 8 m/s 757 mmHg 73%
    04:00 +10°C° 0 mm 8 m/s 757 mmHg 73%
    05:00 +10°C° 0 mm 7 m/s 757 mmHg 74%
    06:00 +11°C° 0.1 mm 7 m/s 758 mmHg 72%
    07:00 +12°C° 0.1 mm 7 m/s 758 mmHg 69%
    08:00 +13°C° 0 mm 6 m/s 759 mmHg 67%
    09:00 +14°C° 0.1 mm 6 m/s 759 mmHg 64%
    10:00 +14°C° 0.1 mm 6 m/s 759 mmHg 62%
    11:00 +15°C° 0.1 mm 6 m/s 759 mmHg 59%
    12:00 +15°C° 0.1 mm 6 m/s 760 mmHg 59%
    13:00 +15°C° 0.1 mm 6 m/s 760 mmHg 59%
    14:00 +15°C° 0.1 mm 6 m/s 760 mmHg 58%
    15:00 +15°C° 0 mm 5 m/s 760 mmHg 59%
    16:00 +15°C° 0 mm 5 m/s 760 mmHg 60%
    17:00 +15°C° 0 mm 5 m/s 760 mmHg 61%
    18:00 +13°C° 0 mm 4 m/s 761 mmHg 65%
    19:00 +12°C° 0 mm 4 m/s 761 mmHg 69%
    20:00 +11°C° 0 mm 3 m/s 761 mmHg 73%
    21:00 +12°C° 0 mm 2 m/s 761 mmHg 74%
    22:00 +10°C° 0 mm 2 m/s 761 mmHg 74%
    23:00 +11°C° 0 mm 1 m/s 761 mmHg 75%

    Demain, 23 Octobre, Mardi

    Heure Température Précipitation Vent Pression Humidité
    00:00 +11°C° 0 mm 1 m/s 761 mmHg 76%
    01:00 +11°C° 0 mm 1 m/s 761 mmHg 76%
    02:00 +11°C° 0 mm 1 m/s 761 mmHg 77%
    03:00 +11°C° 0 mm 1 m/s 761 mmHg 78%
    04:00 +10°C° 0 mm 2 m/s 761 mmHg 78%
    05:00 +10°C° 0 mm 2 m/s 760 mmHg 79%
    06:00 +12°C° 0 mm 2 m/s 761 mmHg 75%
    07:00 +12°C° 0 mm 3 m/s 761 mmHg 71%
    08:00 +13°C° 0 mm 3 m/s 761 mmHg 67%
    09:00 +14°C° 0 mm 3 m/s 761 mmHg 64%
    10:00 +16°C° 0 mm 3 m/s 760 mmHg 61%
    11:00 +17°C° 0 mm 3 m/s 760 mmHg 58%
    12:00 +17°C° 0 mm 3 m/s 759 mmHg 57%
    13:00 +18°C° 0 mm 3 m/s 759 mmHg 57%
    14:00 +18°C° 0 mm 3 m/s 758 mmHg 56%
    15:00 +18°C° 0 mm 2 m/s 758 mmHg 56%
    16:00 +19°C° 0 mm 2 m/s 758 mmHg 55%
    17:00 +19°C° 0 mm 2 m/s 757 mmHg 54%
    18:00 +17°C° 0 mm 2 m/s 758 mmHg 61%
    19:00 +16°C° 0 mm 2 m/s 758 mmHg 68%
    20:00 +14°C° 0 mm 2 m/s 758 mmHg 75%
    21:00 +13°C° 0 mm 2 m/s 758 mmHg 78%
    22:00 +13°C° 0 mm 2 m/s 758 mmHg 82%
    23:00 +12°C° 0 mm 2 m/s 758 mmHg 85%

    Après-demain, 24 Octobre, Mercredi

    Heure Température Précipitation Vent Pression Humidité
    00:00 +12°C° 0 mm 2 m/s 757 mmHg 86%
    01:00 +12°C° 0 mm 2 m/s 757 mmHg 87%
    02:00 +12°C° 0 mm 2 m/s 756 mmHg 88%
    03:00 +10°C° 0 mm 2 m/s 756 mmHg 89%
    04:00 +10°C° 0 mm 3 m/s 756 mmHg 89%
    05:00 +10°C° 0 mm 3 m/s 756 mmHg 90%
    06:00 +11°C° 0 mm 3 m/s 756 mmHg 84%
    07:00 +13°C° 0 mm 4 m/s 756 mmHg 78%
    08:00 +14°C° 0 mm 4 m/s 756 mmHg 72%
    09:00 +15°C° 0.5 mm 4 m/s 756 mmHg 74%
    10:00 +17°C° 0.5 mm 4 m/s 756 mmHg 75%
    11:00 +17°C° 0.5 mm 4 m/s 756 mmHg 77%
    12:00 +15°C° 0.5 mm 4 m/s 756 mmHg 81%
    13:00 +15°C° 0.5 mm 4 m/s 756 mmHg 86%
    14:00 +14°C° 0.5 mm 4 m/s 756 mmHg 91%
    15:00 +14°C° 0.4 mm 4 m/s 756 mmHg 87%
    16:00 +15°C° 0.4 mm 4 m/s 756 mmHg 83%
    17:00 +15°C° 0.4 mm 4 m/s 756 mmHg 80%
    18:00 +14°C° 0 mm 4 m/s 757 mmHg 82%
    19:00 +13°C° 0 mm 4 m/s 758 mmHg 85%
    20:00 +12°C° 0 mm 4 m/s 758 mmHg 87%
    21:00 +12°C° 0 mm 4 m/s 759 mmHg 88%
    22:00 +12°C° 0 mm 4 m/s 759 mmHg 89%
    23:00 +12°C° 0 mm 3 m/s 759 mmHg 90%

    25 Octobre, Jeudi

    Heure Température Précipitation Vent Pression Humidité
    00:00 +11°C° 0 mm 3 m/s 759 mmHg 91%
    01:00 +11°C° 0 mm 3 m/s 760 mmHg 91%
    02:00 +11°C° 0 mm 3 m/s 760 mmHg 92%
    03:00 +11°C° 0 mm 3 m/s 760 mmHg 92%
    04:00 +11°C° 0 mm 3 m/s 760 mmHg 91%
    05:00 +11°C° 0 mm 3 m/s 760 mmHg 91%
    06:00 +12°C° 0 mm 3 m/s 760 mmHg 86%
    07:00 +14°C° 0 mm 3 m/s 761 mmHg 82%
    08:00 +16°C° 0 mm 3 m/s 761 mmHg 77%
    09:00 +17°C° 0 mm 3 m/s 761 mmHg 72%
    10:00 +18°C° 0 mm 3 m/s 761 mmHg 66%
    11:00 +19°C° 0 mm 4 m/s 761 mmHg 60%
    12:00 +19°C° 0 mm 4 m/s 761 mmHg 60%
    13:00 +20°C° 0 mm 4 m/s 760 mmHg 60%
    14:00 +20°C° 0 mm 4 m/s 760 mmHg 61%
    15:00 +19°C° 0 mm 4 m/s 760 mmHg 64%
    16:00 +18°C° 0 mm 4 m/s 760 mmHg 68%
    17:00 +17°C° 0 mm 4 m/s 761 mmHg 71%
    18:00 +16°C° 0 mm 3 m/s 761 mmHg 77%
    19:00 +13°C° 0 mm 3 m/s 762 mmHg 82%
    20:00 +13°C° 0 mm 2 m/s 762 mmHg 87%
    21:00 +13°C° 0 mm 2 m/s 762 mmHg 89%
    22:00 +12°C° 0 mm 1 m/s 762 mmHg 90%
    23:00 +12°C° 0 mm 1 m/s 762 mmHg 92%

    26 Octobre, Vendredi

    Heure Température Précipitation Vent Pression Humidité
    00:00 +12°C° 0 mm 1 m/s 761 mmHg 92%
    01:00 +11°C° 0 mm 1 m/s 761 mmHg 93%
    02:00 +10°C° 0 mm 2 m/s 761 mmHg 93%
    03:00 +10°C° 0 mm 2 m/s 761 mmHg 93%
    04:00 +10°C° 0 mm 2 m/s 761 mmHg 93%
    05:00 +10°C° 0 mm 2 m/s 761 mmHg 93%
    06:00 +12°C° 0 mm 3 m/s 761 mmHg 86%
    07:00 +13°C° 0 mm 3 m/s 762 mmHg 80%
    08:00 +16°C° 0 mm 3 m/s 762 mmHg 73%
    09:00 +18°C° 0 mm 4 m/s 762 mmHg 66%
    10:00 +19°C° 0 mm 4 m/s 762 mmHg 60%
    11:00 +20°C° 0 mm 5 m/s 761 mmHg 53%
    12:00 +21°C° 0 mm 5 m/s 761 mmHg 51%
    13:00 +21°C° 0 mm 5 m/s 761 mmHg 48%
    14:00 +21°C° 0 mm 5 m/s 761 mmHg 46%
    15:00 +20°C° 0 mm 5 m/s 761 mmHg 52%
    16:00 +19°C° 0 mm 5 m/s 761 mmHg 57%
    17:00 +17°C° 0 mm 5 m/s 761 mmHg 63%
    18:00 +17°C° 0 mm 4 m/s 762 mmHg 71%
    19:00 +15°C° 0 mm 4 m/s 763 mmHg 80%
    20:00 +13°C° 0 mm 3 m/s 763 mmHg 89%
    21:00 +14°C° 0 mm 3 m/s 763 mmHg 88%
    22:00 +14°C° 0 mm 3 m/s 763 mmHg 88%
    23:00 +15°C° 0 mm 2 m/s 763 mmHg 87%

    27 Octobre, Samedi

    Heure Température Précipitation Vent Pression Humidité
    00:00 +15°C° 0 mm 2 m/s 763 mmHg 88%
    01:00 +15°C° 0 mm 2 m/s 763 mmHg 89%
    02:00 +15°C° 0 mm 2 m/s 763 mmHg 89%
    03:00 +14°C° 0 mm 2 m/s 763 mmHg 90%
    04:00 +14°C° 0 mm 2 m/s 763 mmHg 90%
    05:00 +14°C° 0 mm 2 m/s 763 mmHg 91%
    06:00 +14°C° 0.1 mm 3 m/s 764 mmHg 89%
    07:00 +16°C° 0.1 mm 3 m/s 764 mmHg 86%
    08:00 +17°C° 0.1 mm 3 m/s 765 mmHg 83%
    09:00 +17°C° 0.1 mm 3 m/s 765 mmHg 79%
    10:00 +18°C° 0.1 mm 3 m/s 765 mmHg 74%
    11:00 +19°C° 0.1 mm 3 m/s 765 mmHg 70%
    12:00 +19°C° 0 mm 3 m/s 764 mmHg 68%
    13:00 +19°C° 0 mm 3 m/s 764 mmHg 67%
    14:00 +19°C° 0 mm 3 m/s 764 mmHg 65%
    15:00 +19°C° 0 mm 3 m/s 764 mmHg 67%
    16:00 +18°C° 0 mm 3 m/s 764 mmHg 68%
    17:00 +18°C° 0 mm 3 m/s 764 mmHg 70%
    18:00 +16°C° 0 mm 3 m/s 765 mmHg 75%
    19:00 +14°C° 0 mm 3 m/s 765 mmHg 81%
    20:00 +13°C° 0 mm 2 m/s 765 mmHg 86%
    21:00 +13°C° 0 mm 2 m/s 765 mmHg 87%
    22:00 +12°C° 0 mm 2 m/s 765 mmHg 88%
    23:00 +12°C° 0 mm 2 m/s 765 mmHg 89%

    28 Octobre, Dimanche

    Heure Température Précipitation Vent Pression Humidité
    00:00 +10°C° 0 mm 2 m/s 765 mmHg 90%
    01:00 +10°C° 0 mm 2 m/s 765 mmHg 91%
    02:00 +11°C° 0 mm 1 m/s 764 mmHg 92%
    03:00 +11°C° 0 mm 1 m/s 764 mmHg 93%
    04:00 +10°C° 0 mm 1 m/s 764 mmHg 93%
    05:00 +10°C° 0 mm 1 m/s 764 mmHg 94%
    06:00 +12°C° 0 mm 2 m/s 764 mmHg 86%
    07:00 +14°C° 0 mm 2 m/s 764 mmHg 79%
    08:00 +16°C° 0 mm 2 m/s 764 mmHg 71%
    09:00 +18°C° 0 mm 2 m/s 764 mmHg 63%
    10:00 +20°C° 0 mm 2 m/s 763 mmHg 55%
    11:00 +23°C° 0 mm 2 m/s 763 mmHg 47%
    12:00 +22°C° 0 mm 3 m/s 762 mmHg 47%
    13:00 +24°C° 0 mm 3 m/s 762 mmHg 46%
    14:00 +23°C° 0 mm 4 m/s 761 mmHg 46%
    15:00 +22°C° 0 mm 4 m/s 761 mmHg 51%
    16:00 +21°C° 0 mm 4 m/s 761 mmHg 56%
    17:00 +21°C° 0 mm 4 m/s 760 mmHg 60%
    18:00 +19°C° 0 mm 4 m/s 761 mmHg 68%
    19:00 +17°C° 0 mm 3 m/s 761 mmHg 76%
    20:00 +14°C° 0 mm 3 m/s 761 mmHg 85%
    21:00 +14°C° 0 mm 2 m/s 761 mmHg 86%
    22:00 +13°C° 0 mm 2 m/s 760 mmHg 87%
    23:00 +13°C° 0 mm 1 m/s 760 mmHg 89%
    Voir plus